| time (UTC) | temp F | wind direction | speed knots | gust knots | rain 1hr in | rain 24hr in | rain mn in | humidity % | barometer mb |
| 20260904172507 | 57 | 21 | 7.0 | 9.6 | 0.00 | 0.00 | 0.00 | 85 | 1012.8 |
| 20260904172006 | 57 | 14 | 7.0 | 10.4 | 0.00 | 0.00 | 0.00 | 86 | 1012.8 |
| 20260904171503 | 57 | 14 | 7.0 | 10.4 | 0.00 | 0.00 | 0.00 | 85 | 1012.8 |
| 20260904170958 | 57 | 359 | 5.2 | 9.6 | 0.00 | 0.00 | 0.00 | 86 | 1012.8 |
| 20260904170456 | 57 | 14 | 4.3 | 6.1 | 0.00 | 0.00 | 0.00 | 86 | 1012.8 |
| 20260904165957 | 57 | 18 | 4.3 | 6.1 | 0.00 | 0.00 | 0.00 | 86 | 1012.8 |
| 20260904165453 | 56 | 18 | 4.3 | 6.1 | 0.00 | 0.00 | 0.00 | 87 | 1012.8 |
| 20260904164955 | 56 | 4 | 4.3 | 6.1 | 0.00 | 0.00 | 0.00 | 87 | 1012.8 |
| 20260904164856 | 56 | 355 | 4.3 | 6.1 | 0.00 | 0.00 | 0.00 | 87 | 1012.8 |
| 20260904163446 | 56 | 9 | 3.5 | 5.2 | 0.00 | 0.00 | 0.00 | 87 | 1012.7 |
| 20260904162944 | 56 | 19 | 3.5 | 5.2 | 0.00 | 0.00 | 0.00 | 87 | 1012.7 |
| 20260904162742 | 56 | 17 | 2.6 | 4.3 | 0.00 | 0.00 | 0.00 | 87 | 1012.7 |
| 20260904161938 | 56 | 359 | 1.7 | 2.6 | 0.00 | 0.00 | 0.00 | 87 | 1012.7 |
| 20260904161435 | 56 | 9 | 1.7 | 2.6 | 0.00 | 0.00 | 0.00 | 87 | 1012.7 |
| 20260904160932 | 56 | 354 | 1.7 | 2.6 | 0.00 | 0.00 | 0.00 | 87 | 1012.6 |
| 20260904160431 | 56 | 298 | 1.7 | 2.6 | 0.00 | 0.00 | 0.00 | 88 | 1012.6 |
| 20260904155934 | 56 | 281 | 0.9 | 2.6 | 0.00 | 0.00 | 0.00 | 88 | 1012.6 |
| 20260904155415 | 56 | 243 | 0.9 | 3.5 | 0.00 | 0.00 | 0.00 | 88 | 1012.4 |
| 20260904155221 | 56 | 292 | 0.9 | 3.5 | 0.00 | 0.00 | 0.00 | 88 | 1012.4 |
| 20260904154415 | 56 | 342 | 0.0 | 0.9 | 0.00 | 0.00 | 0.00 | 89 | 1012.4 |
| 20260904153913 | 55 | 331 | 0.9 | 1.7 | 0.00 | 0.00 | 0.00 | 89 | 1012.3 |
| 20260904153405 | 55 | 331 | 1.7 | 3.5 | 0.00 | 0.00 | 0.00 | 89 | 1012.3 |
| 20260904152904 | 55 | 335 | 1.7 | 3.5 | 0.00 | 0.01 | 0.00 | 89 | 1012.3 |
| 20260904152656 | 55 | 346 | 1.7 | 2.6 | 0.00 | 0.01 | 0.00 | 89 | 1012.3 |
| 20260904151901 | 55 | 344 | 1.7 | 2.6 | 0.00 | 0.01 | 0.00 | 89 | 1012.3 |
| 20260904151401 | 55 | 9 | 0.9 | 1.7 | 0.00 | 0.01 | 0.00 | 89 | 1012.3 |
| 20260904150902 | 55 | 19 | 0.9 | 2.6 | 0.00 | 0.01 | 0.00 | 89 | 1012.0 |
| 20260904150700 | 55 | 26 | 1.7 | 3.5 | 0.00 | 0.01 | 0.00 | 89 | 1012.0 |
| 20260904145845 | 55 | 32 | 1.7 | 4.3 | 0.00 | 0.01 | 0.00 | 89 | 1012.0 |
| 20260904145347 | 55 | 359 | 1.7 | 4.3 | 0.00 | 0.01 | 0.00 | 89 | 1011.9 |
| 20260904144838 | 54 | 13 | 1.7 | 3.5 | 0.00 | 0.01 | 0.00 | 89 | 1011.9 |
| 20260904144334 | 54 | 331 | 1.7 | 2.6 | 0.00 | 0.01 | 0.00 | 89 | 1011.9 |
| 20260904143826 | 55 | 304 | 2.6 | 4.3 | 0.00 | 0.01 | 0.00 | 89 | 1011.8 |
| 20260904143321 | 55 | 321 | 2.6 | 6.1 | 0.00 | 0.01 | 0.00 | 89 | 1011.8 |
| 20260904142814 | 55 | 335 | 3.5 | 6.1 | 0.00 | 0.01 | 0.00 | 89 | 1011.8 |
| 20260904142306 | 54 | 333 | 2.6 | 4.3 | 0.00 | 0.01 | 0.00 | 89 | 1011.8 |
| 20260904141805 | 54 | 4 | 2.6 | 4.3 | 0.00 | 0.01 | 0.00 | 89 | 1011.8 |
| 20260904141305 | 54 | 342 | 2.6 | 4.3 | 0.00 | 0.01 | 0.00 | 89 | 1011.8 |
| 20260904140803 | 54 | 339 | 2.6 | 5.2 | 0.00 | 0.02 | 0.00 | 89 | 1011.4 |
| 20260904140310 | 54 | 359 | 2.6 | 5.2 | 0.00 | 0.02 | 0.00 | 89 | 1011.4 |
| 20260904135306 | 54 | 9 | 1.7 | 3.5 | 0.00 | 0.02 | 0.00 | 89 | 1011.1 |
| 20260904134826 | 54 | 17 | 1.7 | 3.5 | 0.00 | 0.02 | 0.00 | 89 | 1011.1 |
| 20260904133816 | 54 | 348 | 1.7 | 2.6 | 0.00 | 0.02 | 0.00 | 89 | 1011.1 |
| 20260904132749 | 54 | 344 | 0.9 | 3.5 | 0.00 | 0.02 | 0.00 | 89 | 1011.1 |
| 20260904132246 | 54 | 335 | 0.0 | 1.7 | 0.00 | 0.02 | 0.00 | 88 | 1010.9 |
| 20260904131731 | 54 | 335 | 0.9 | 1.7 | 0.00 | 0.02 | 0.00 | 88 | 1010.9 |
| 20260904131230 | 54 | 335 | 0.9 | 1.7 | 0.00 | 0.02 | 0.00 | 88 | 1010.9 |
| 20260904130732 | 54 | 334 | 0.9 | 1.7 | 0.00 | 0.02 | 0.00 | 88 | 1010.9 |
| 20260904130232 | 54 | 306 | 0.9 | 1.7 | 0.00 | 0.03 | 0.00 | 88 | 1010.9 |
| 20260904130023 | 54 | 254 | 0.9 | 2.6 | 0.00 | 0.03 | 0.00 | 88 | 1010.9 |
| 20260904125222 | 54 | 237 | 0.9 | 2.6 | 0.00 | 0.03 | 0.00 | 88 | 1011.0 |
| 20260904124725 | 54 | 244 | 0.9 | 2.6 | 0.00 | 0.03 | 0.00 | 88 | 1011.0 |
| 20260904124210 | 54 | 331 | 0.9 | 1.7 | 0.00 | 0.03 | 0.00 | 88 | 1011.0 |
| 20260904123658 | 54 | 331 | 0.9 | 1.7 | 0.00 | 0.03 | 0.00 | 88 | 1010.8 |
| 20260904123157 | 54 | 347 | 1.7 | 3.5 | 0.00 | 0.03 | 0.00 | 88 | 1010.8 |
| 20260904122658 | 54 | 351 | 1.7 | 3.5 | 0.00 | 0.03 | 0.00 | 88 | 1010.8 |
| 20260904122159 | 54 | 339 | 1.7 | 2.6 | 0.00 | 0.03 | 0.00 | 88 | 1010.8 |
| 20260904121641 | 54 | 345 | 1.7 | 2.6 | 0.00 | 0.03 | 0.00 | 88 | 1010.8 |
| 20260904121435 | 54 | 339 | 1.7 | 2.6 | 0.00 | 0.03 | 0.00 | 88 | 1010.8 |
| 20260904120631 | 54 | 332 | 0.9 | 1.7 | 0.00 | 0.03 | 0.00 | 88 | 1010.8 |
| 20260904120131 | 54 | 323 | 0.0 | 0.9 | 0.00 | 0.03 | 0.00 | 88 | 1010.8 |
| 20260904115631 | 54 | 323 | 0.9 | 1.7 | 0.00 | 0.04 | 0.00 | 88 | 1010.8 |
| 20260904115134 | 54 | 343 | 0.9 | 1.7 | 0.00 | 0.04 | 0.00 | 88 | 1010.8 |
| 20260904114631 | 54 | 354 | 0.9 | 1.7 | 0.00 | 0.04 | 0.00 | 88 | 1010.8 |
| 20260904114146 | 54 | 354 | 0.9 | 2.6 | 0.00 | 0.04 | 0.00 | 88 | 1010.7 |
| 20260904113633 | 54 | 359 | 0.9 | 1.7 | 0.00 | 0.05 | 0.00 | 88 | 1010.7 |
| 20260904113121 | 54 | 333 | 0.9 | 1.7 | 0.00 | 0.05 | 0.00 | 88 | 1010.7 |
| 20260904112917 | 55 | 319 | 0.9 | 1.7 | 0.00 | 0.05 | 0.00 | 88 | 1010.4 |
| 20260904112150 | 55 | 337 | 0.9 | 1.7 | 0.00 | 0.05 | 0.00 | 88 | 1010.4 |
| 20260904111358 | 55 | 334 | 0.9 | 2.6 | 0.00 | 0.05 | 0.00 | 88 | 1010.3 |
| 20260904110613 | 55 | 323 | 1.7 | 2.6 | 0.00 | 0.06 | 0.00 | 88 | 1010.3 |
| 20260904110108 | 55 | 336 | 0.9 | 2.6 | 0.00 | 0.06 | 0.00 | 88 | 1010.3 |
| 20260904105609 | 55 | 19 | 0.9 | 1.7 | 0.00 | 0.06 | 0.00 | 88 | 1010.3 |
| 20260904105043 | 55 | 19 | 0.9 | 1.7 | 0.00 | 0.06 | 0.00 | 88 | 1010.3 |
| 20260904104533 | 55 | 19 | 0.9 | 1.7 | 0.00 | 0.06 | 0.00 | 87 | 1010.3 |
| 20260904104325 | 55 | 19 | 0.9 | 1.7 | 0.00 | 0.06 | 0.00 | 87 | 1010.2 |
| 20260904103511 | 55 | 19 | 0.9 | 1.7 | 0.00 | 0.06 | 0.00 | 87 | 1010.2 |
| 20260904103045 | 55 | 319 | 0.9 | 1.7 | 0.00 | 0.06 | 0.00 | 87 | 1010.2 |
| 20260904102310 | 55 | 319 | 0.9 | 1.7 | 0.00 | 0.06 | 0.00 | 87 | 1010.2 |
| 20260904101515 | 55 | 319 | 0.9 | 1.7 | 0.00 | 0.06 | 0.00 | 87 | 1010.2 |
| 20260904101017 | 55 | 319 | 0.0 | 1.7 | 0.00 | 0.06 | 0.00 | 86 | 1010.0 |
| 20260904100502 | 55 | 319 | 0.0 | 0.9 | 0.00 | 0.06 | 0.00 | 86 | 1010.0 |
| 20260904100005 | 55 | 319 | 0.0 | 0.9 | 0.00 | 0.06 | 0.00 | 86 | 1010.0 |
| 20260904095509 | 55 | 319 | 0.0 | 0.0 | 0.00 | 0.06 | 0.00 | 85 | 1009.9 |
| 20260904095222 | 55 | 319 | 0.0 | 0.9 | 0.00 | 0.06 | 0.00 | 85 | 1009.9 |
| 20260904094444 | 55 | 319 | 0.0 | 0.9 | 0.00 | 0.06 | 0.00 | 85 | 1009.9 |
| 20260904093913 | 55 | 319 | 0.0 | 0.9 | 0.00 | 0.06 | 0.00 | 85 | 1010.0 |
| 20260904093420 | 55 | 319 | 0.0 | 0.9 | 0.00 | 0.06 | 0.00 | 85 | 1010.0 |
| 20260904092905 | 55 | 319 | 0.9 | 1.7 | 0.00 | 0.06 | 0.00 | 85 | 1010.0 |
| 20260904092646 | 55 | 319 | 0.9 | 1.7 | 0.00 | 0.06 | 0.00 | 85 | 1010.1 |
| 20260904091851 | 55 | 321 | 0.9 | 2.6 | 0.00 | 0.06 | 0.00 | 84 | 1010.1 |
| 20260904091352 | 55 | 314 | 1.7 | 2.6 | 0.00 | 0.06 | 0.00 | 84 | 1010.1 |
| 20260904091118 | 55 | 323 | 1.7 | 2.6 | 0.00 | 0.06 | 0.00 | 84 | 1010.1 |
| 20260904090339 | 55 | 303 | 1.7 | 4.3 | 0.00 | 0.06 | 0.00 | 83 | 1010.1 |
| 20260904085829 | 56 | 294 | 2.6 | 4.3 | 0.00 | 0.06 | 0.00 | 83 | 1010.1 |
| 20260904085330 | 56 | 285 | 1.7 | 3.5 | 0.00 | 0.06 | 0.00 | 82 | 1010.2 |
| 20260904084829 | 56 | 296 | 0.9 | 2.6 | 0.00 | 0.06 | 0.00 | 83 | 1010.2 |
| 20260904084333 | 56 | 323 | 0.9 | 1.7 | 0.00 | 0.06 | 0.00 | 83 | 1010.2 |
| 20260904084058 | 56 | 321 | 0.9 | 1.7 | 0.00 | 0.06 | 0.00 | 83 | 1010.2 |
| 20260904083330 | 56 | 331 | 1.7 | 2.6 | 0.00 | 0.06 | 0.00 | 84 | 1010.2 |
| 20260904083114 | 56 | 359 | 1.7 | 2.6 | 0.00 | 0.06 | 0.00 | 84 | 1010.2 |
| 20260904082331 | 56 | 333 | 1.7 | 2.6 | 0.00 | 0.06 | 0.00 | 84 | 1010.2 |
| 20260904081836 | 56 | 331 | 1.7 | 2.6 | 0.00 | 0.06 | 0.00 | 84 | 1010.2 |
| 20260904081333 | 56 | 351 | 1.7 | 2.6 | 0.00 | 0.06 | 0.00 | 84 | 1010.2 |
| 20260904080819 | 56 | 350 | 1.7 | 2.6 | 0.00 | 0.06 | 0.00 | 84 | 1010.2 |
| 20260904080323 | 56 | 19 | 1.7 | 2.6 | 0.00 | 0.06 | 0.00 | 84 | 1010.2 |
| 20260904075815 | 56 | 359 | 1.7 | 2.6 | 0.00 | 0.06 | 0.00 | 84 | 1010.2 |
| 20260904075311 | 56 | 18 | 1.7 | 3.5 | 0.00 | 0.06 | 0.00 | 84 | 1010.2 |
| 20260904074806 | 56 | 21 | 1.7 | 3.5 | 0.00 | 0.07 | 0.00 | 84 | 1010.2 |
| 20260904074305 | 56 | 4 | 1.7 | 2.6 | 0.00 | 0.07 | 0.00 | 84 | 1010.2 |
| 20260904073802 | 56 | 9 | 1.7 | 2.6 | 0.00 | 0.07 | 0.00 | 84 | 1010.0 |
| 20260904073302 | 56 | 359 | 1.7 | 3.5 | 0.00 | 0.07 | 0.00 | 84 | 1010.0 |
| 20260904072805 | 56 | 359 | 1.7 | 3.5 | 0.00 | 0.07 | 0.00 | 84 | 1010.0 |
| 20260904072313 | 56 | 355 | 1.7 | 3.5 | 0.00 | 0.07 | 0.00 | 84 | 1009.9 |
| 20260904071808 | 56 | 9 | 1.7 | 2.6 | 0.00 | 0.07 | 0.00 | 84 | 1009.9 |
| 20260904071258 | 56 | 16 | 1.7 | 2.6 | 0.00 | 0.07 | 0.00 | 84 | 1009.9 |
| 20260904070752 | 56 | 26 | 1.7 | 2.6 | 0.00 | 0.07 | 0.00 | 84 | 1009.8 |
| 20260904070245 | 56 | 18 | 0.9 | 2.6 | 0.00 | 0.07 | 0.00 | 83 | 1009.8 |
| 20260904070023 | 56 | 350 | 0.9 | 2.6 | 0.00 | 0.07 | 0.07 | 83 | 1009.8 |
| 20260904065233 | 56 | 250 | 0.9 | 1.7 | 0.00 | 0.07 | 0.07 | 83 | 1009.8 |
| 20260904065020 | 56 | 250 | 0.9 | 1.7 | 0.00 | 0.07 | 0.07 | 83 | 1009.8 |
| 20260904064231 | 56 | 9 | 0.0 | 0.9 | 0.00 | 0.07 | 0.07 | 83 | 1009.8 |
| 20260904063729 | 56 | 9 | 0.9 | 1.7 | 0.00 | 0.07 | 0.07 | 83 | 1009.8 |
| 20260904063235 | 56 | 9 | 0.9 | 2.6 | 0.00 | 0.07 | 0.07 | 83 | 1009.8 |
| 20260904062729 | 56 | 9 | 1.7 | 2.6 | 0.00 | 0.07 | 0.07 | 83 | 1009.8 |
| 20260904062230 | 56 | 9 | 1.7 | 2.6 | 0.00 | 0.07 | 0.07 | 83 | 1009.8 |
| 20260904061731 | 56 | 4 | 1.7 | 2.6 | 0.00 | 0.07 | 0.07 | 83 | 1009.8 |
| 20260904061525 | 56 | 23 | 0.9 | 2.6 | 0.00 | 0.07 | 0.07 | 82 | 1009.8 |
| 20260904060729 | 56 | 75 | 0.0 | 1.7 | 0.00 | 0.07 | 0.07 | 82 | 1009.8 |
| 20260904060512 | 56 | 152 | 0.0 | 0.9 | 0.00 | 0.07 | 0.07 | 81 | 1009.8 |
| 20260904055737 | 56 | 152 | 0.9 | 1.7 | 0.00 | 0.07 | 0.07 | 80 | 1009.8 |
| 20260904055230 | 56 | 152 | 1.7 | 3.5 | 0.00 | 0.07 | 0.07 | 80 | 1009.9 |
| 20260904054732 | 56 | 153 | 1.7 | 3.5 | 0.00 | 0.07 | 0.07 | 80 | 1009.9 |
| 20260904054233 | 56 | 171 | 0.9 | 2.6 | 0.00 | 0.07 | 0.07 | 81 | 1009.9 |
| 20260904053734 | 56 | 359 | 0.9 | 1.7 | 0.00 | 0.07 | 0.07 | 82 | 1009.8 |
| 20260904053224 | 56 | 359 | 0.9 | 1.7 | 0.00 | 0.07 | 0.07 | 82 | 1009.8 |
| 20260904052712 | 56 | 337 | 0.0 | 1.7 | 0.00 | 0.07 | 0.07 | 82 | 1009.8 |
| 20260904052205 | 56 | 282 | 0.0 | 1.7 | 0.00 | 0.07 | 0.07 | 82 | 1009.8 |
| 20260904051958 | 56 | 271 | 0.0 | 0.0 | 0.00 | 0.07 | 0.07 | 81 | 1009.8 |
| 20260904051451 | 56 | 271 | 0.0 | 0.9 | 0.00 | 0.07 | 0.07 | 81 | 1009.8 |
| 20260904051001 | 57 | 271 | 0.0 | 0.9 | 0.00 | 0.07 | 0.07 | 80 | 1009.8 |
| 20260904050204 | 57 | 271 | 0.0 | 0.9 | 0.00 | 0.07 | 0.07 | 80 | 1009.8 |
| 20260904045949 | 57 | 271 | 0.0 | 0.9 | 0.00 | 0.07 | 0.07 | 79 | 1009.8 |
| 20260904045153 | 57 | 271 | 0.0 | 0.9 | 0.00 | 0.07 | 0.07 | 79 | 1009.7 |
| 20260904044641 | 57 | 271 | 0.0 | 0.9 | 0.00 | 0.07 | 0.07 | 78 | 1009.7 |
| 20260904044136 | 57 | 271 | 0.9 | 2.6 | 0.00 | 0.07 | 0.07 | 78 | 1009.7 |
| 20260904043631 | 57 | 271 | 0.9 | 2.6 | 0.00 | 0.07 | 0.07 | 77 | 1009.7 |
| 20260904043428 | 57 | 217 | 1.7 | 3.5 | 0.00 | 0.07 | 0.07 | 76 | 1009.7 |
| 20260904042628 | 57 | 177 | 2.6 | 4.3 | 0.00 | 0.07 | 0.07 | 77 | 1009.7 |
| 20260904042127 | 57 | 159 | 2.6 | 4.3 | 0.00 | 0.07 | 0.07 | 77 | 1009.7 |
| 20260904041731 | 57 | 147 | 1.7 | 4.3 | 0.00 | 0.07 | 0.07 | 79 | 1009.7 |
| 20260904040622 | 57 | 248 | 0.9 | 2.6 | 0.00 | 0.07 | 0.07 | 77 | 1009.7 |
| 20260904040418 | 57 | 212 | 0.9 | 2.6 | 0.00 | 0.07 | 0.07 | 76 | 1009.7 |
| 20260904035607 | 58 | 238 | 0.9 | 2.6 | 0.00 | 0.07 | 0.07 | 75 | 1009.5 |
| 20260904035102 | 58 | 248 | 0.9 | 1.7 | 0.00 | 0.07 | 0.07 | 76 | 1009.5 |
| 20260904034601 | 58 | 252 | 0.9 | 1.7 | 0.00 | 0.07 | 0.07 | 75 | 1009.5 |
| 20260904034354 | 58 | 211 | 0.9 | 2.6 | 0.00 | 0.07 | 0.07 | 74 | 1009.3 |
| 20260904033602 | 58 | 186 | 0.9 | 2.6 | 0.00 | 0.07 | 0.07 | 73 | 1009.3 |
| 20260904033353 | 58 | 161 | 0.9 | 1.7 | 0.00 | 0.07 | 0.07 | 72 | 1009.3 |
| 20260904032554 | 58 | 267 | 0.9 | 2.6 | 0.00 | 0.07 | 0.07 | 71 | 1009.2 |
| 20260904032049 | 59 | 265 | 1.7 | 2.6 | 0.00 | 0.07 | 0.07 | 71 | 1009.2 |
| 20260904031846 | 59 | 218 | 1.7 | 3.5 | 0.00 | 0.07 | 0.07 | 69 | 1009.2 |
| 20260904031049 | 59 | 213 | 1.7 | 4.3 | 0.00 | 0.07 | 0.07 | 69 | 1009.3 |
| 20260904030547 | 59 | 150 | 2.6 | 4.3 | 0.00 | 0.07 | 0.07 | 68 | 1009.3 |
| 20260904030346 | 59 | 163 | 1.7 | 3.5 | 0.00 | 0.07 | 0.07 | 68 | 1009.3 |
| 20260904025840 | 59 | 178 | 1.7 | 3.5 | 0.00 | 0.07 | 0.07 | 68 | 1009.2 |
| 20260904025041 | 59 | 209 | 1.7 | 5.2 | 0.00 | 0.07 | 0.07 | 68 | 1009.2 |
| 20260904024621 | 59 | 179 | 1.7 | 5.2 | 0.00 | 0.07 | 0.07 | 68 | 1009.2 |
| 20260904023536 | 59 | 174 | 1.7 | 3.5 | 0.00 | 0.07 | 0.07 | 68 | 1009.2 |
| 20260904023340 | 59 | 246 | 1.7 | 3.5 | 0.00 | 0.07 | 0.07 | 68 | 1009.2 |
| 20260904022834 | 59 | 256 | 1.7 | 3.5 | 0.00 | 0.07 | 0.07 | 68 | 1009.2 |
| 20260904022018 | 59 | 185 | 2.6 | 4.3 | 0.00 | 0.07 | 0.07 | 67 | 1009.2 |
| 20260904021515 | 59 | 157 | 2.6 | 4.3 | 0.00 | 0.07 | 0.07 | 67 | 1009.2 |
| 20260904021311 | 59 | 154 | 3.5 | 6.1 | 0.00 | 0.07 | 0.07 | 68 | 1009.0 |
| 20260904020505 | 59 | 174 | 3.5 | 9.6 | 0.00 | 0.07 | 0.07 | 68 | 1009.0 |
| 20260904020003 | 60 | 230 | 3.5 | 9.6 | 0.00 | 0.07 | 0.07 | 68 | 1009.0 |
| 20260904015505 | 60 | 216 | 2.6 | 5.2 | 0.00 | 0.07 | 0.07 | 68 | 1008.9 |
| 20260904015001 | 60 | 197 | 2.6 | 4.3 | 0.00 | 0.07 | 0.07 | 69 | 1008.9 |
| 20260904014501 | 60 | 229 | 2.6 | 4.3 | 0.00 | 0.07 | 0.07 | 69 | 1008.9 |
| 20260904014304 | 60 | 238 | 2.6 | 4.3 | 0.00 | 0.07 | 0.07 | 69 | 1009.0 |
| 20260904013501 | 60 | 207 | 2.6 | 4.3 | 0.00 | 0.07 | 0.07 | 68 | 1009.0 |
| 20260904013300 | 60 | 209 | 3.5 | 12.2 | 0.00 | 0.07 | 0.07 | 68 | 1009.0 |
| 20260904012507 | 59 | 188 | 4.3 | 12.2 | 0.00 | 0.07 | 0.07 | 68 | 1008.9 |
| 20260904012000 | 60 | 139 | 5.2 | 11.3 | 0.00 | 0.07 | 0.07 | 68 | 1008.9 |
| 20260904011721 | 60 | 203 | 4.3 | 11.3 | 0.00 | 0.07 | 0.07 | 67 | 1008.9 |
| 20260904011504 | 60 | 203 | 4.3 | 11.3 | 0.00 | 0.07 | 0.07 | 67 | 1008.9 |
| 20260904011003 | 60 | 148 | 3.5 | 8.7 | 0.00 | 0.07 | 0.07 | 67 | 1008.7 |
| 20260904010504 | 60 | 173 | 3.5 | 8.7 | 0.00 | 0.07 | 0.07 | 67 | 1008.7 |
| 20260904010001 | 60 | 181 | 3.5 | 8.7 | 0.00 | 0.07 | 0.07 | 70 | 1008.7 |
| 20260904005449 | 59 | 214 | 5.2 | 10.4 | 0.00 | 0.07 | 0.07 | 70 | 1008.9 |
| 20260904004938 | 59 | 170 | 6.1 | 10.4 | 0.00 | 0.07 | 0.07 | 70 | 1008.9 |
| 20260904004434 | 59 | 159 | 5.2 | 11.3 | 0.00 | 0.07 | 0.07 | 71 | 1008.9 |
| 20260904003933 | 60 | 147 | 5.2 | 11.3 | 0.00 | 0.07 | 0.07 | 71 | 1009.2 |
| 20260904003820 | 60 | 163 | 6.1 | 13.0 | 0.00 | 0.07 | 0.07 | 70 | 1009.2 |
| 20260904002430 | 61 | 238 | 6.1 | 12.2 | 0.00 | 0.07 | 0.07 | 68 | 1009.1 |
| 20260904001929 | 61 | 174 | 4.3 | 12.2 | 0.00 | 0.07 | 0.07 | 68 | 1009.1 |
| 20260904001429 | 61 | 178 | 4.3 | 10.4 | 0.00 | 0.07 | 0.07 | 69 | 1009.1 |
| 20260904000929 | 60 | 150 | 4.3 | 10.4 | 0.00 | 0.07 | 0.07 | 70 | 1009.1 |
| 20260904000432 | 61 | 148 | 4.3 | 9.6 | 0.00 | 0.07 | 0.07 | 69 | 1009.1 |
| 20260904000022 | 61 | 199 | 4.3 | 8.7 | 0.00 | 0.07 | 0.07 | 70 | 1009.1 |
| 20260903234945 | 60 | 173 | 3.5 | 7.0 | 0.00 | 0.07 | 0.07 | 70 | 1009.2 |
| 20260903234435 | 60 | 208 | 4.3 | 9.6 | 0.00 | 0.07 | 0.07 | 69 | 1009.2 |
| 20260903233938 | 61 | 204 | 5.2 | 9.6 | 0.00 | 0.07 | 0.07 | 68 | 1009.2 |
| 20260903233752 | 61 | 173 | 5.2 | 9.6 | 0.00 | 0.07 | 0.07 | 68 | 1009.2 |
| 20260903232934 | 61 | 236 | 5.2 | 9.6 | 0.00 | 0.07 | 0.07 | 68 | 1009.2 |
| 20260903232433 | 60 | 205 | 7.0 | 13.0 | 0.00 | 0.07 | 0.07 | 69 | 1009.2 |
| 20260903231940 | 60 | 169 | 7.8 | 13.0 | 0.00 | 0.07 | 0.07 | 68 | 1009.2 |
| 20260903231523 | 61 | 258 | 6.1 | 13.0 | 0.00 | 0.07 | 0.07 | 68 | 1009.2 |
| 20260903230717 | 61 | 171 | 6.1 | 13.9 | 0.00 | 0.07 | 0.07 | 69 | 1009.2 |
| 20260903225913 | 61 | 269 | 6.1 | 13.9 | 0.00 | 0.07 | 0.07 | 69 | 1009.2 |
| 20260903225410 | 61 | 239 | 6.1 | 13.0 | 0.00 | 0.07 | 0.07 | 69 | 1009.1 |
| 20260903224924 | 61 | 201 | 7.0 | 13.0 | 0.00 | 0.07 | 0.07 | 68 | 1009.1 |
| 20260903224428 | 61 | 188 | 7.8 | 13.0 | 0.00 | 0.07 | 0.07 | 67 | 1009.1 |
| 20260903223910 | 61 | 221 | 7.8 | 13.0 | 0.00 | 0.07 | 0.07 | 66 | 1009.2 |
| 20260903223416 | 61 | 232 | 7.0 | 13.0 | 0.00 | 0.07 | 0.07 | 65 | 1009.2 |
| 20260903223210 | 61 | 194 | 7.8 | 15.6 | 0.00 | 0.07 | 0.07 | 65 | 1009.2 |
| 20260903222412 | 61 | 236 | 7.8 | 15.6 | 0.00 | 0.07 | 0.07 | 65 | 1009.2 |
| 20260903221708 | 62 | 226 | 6.1 | 11.3 | 0.00 | 0.07 | 0.07 | 68 | 1009.2 |
| 20260903220904 | 61 | 248 | 5.2 | 10.4 | 0.00 | 0.07 | 0.07 | 71 | 1009.2 |
| 20260903220444 | 62 | 215 | 5.2 | 10.4 | 0.00 | 0.07 | 0.07 | 71 | 1009.2 |
| 20260903215406 | 62 | 246 | 6.1 | 11.3 | 0.00 | 0.08 | 0.07 | 68 | 1008.9 |
| 20260903214905 | 62 | 252 | 5.2 | 10.4 | 0.00 | 0.08 | 0.07 | 67 | 1008.9 |
| 20260903214408 | 62 | 278 | 4.3 | 10.4 | 0.00 | 0.09 | 0.07 | 67 | 1008.9 |
| 20260903213910 | 62 | 213 | 3.5 | 8.7 | 0.00 | 0.09 | 0.07 | 66 | 1008.9 |
| 20260903213400 | 62 | 272 | 5.2 | 13.0 | 0.00 | 0.10 | 0.07 | 66 | 1008.9 |
| 20260903212851 | 62 | 246 | 6.1 | 13.0 | 0.00 | 0.10 | 0.07 | 65 | 1008.9 |
| 20260903212344 | 63 | 271 | 6.1 | 13.0 | 0.00 | 0.11 | 0.07 | 65 | 1008.7 |
| 20260903211846 | 64 | 237 | 6.1 | 14.8 | 0.00 | 0.13 | 0.07 | 64 | 1008.7 |
| 20260903211344 | 64 | 229 | 6.1 | 14.8 | 0.00 | 0.13 | 0.07 | 60 | 1008.7 |
| 20260903210848 | 64 | 248 | 4.3 | 9.6 | 0.00 | 0.14 | 0.07 | 60 | 1008.6 |
| 20260903210633 | 63 | 269 | 3.5 | 8.7 | 0.00 | 0.14 | 0.07 | 61 | 1008.6 |
| 20260903205845 | 63 | 217 | 2.6 | 6.1 | 0.00 | 0.14 | 0.07 | 62 | 1008.6 |
| 20260903205633 | 63 | 225 | 3.5 | 7.8 | 0.00 | 0.15 | 0.07 | 63 | 1008.7 |
| 20260903204850 | 62 | 219 | 4.3 | 8.7 | 0.00 | 0.16 | 0.07 | 64 | 1008.7 |
| 20260903204331 | 62 | 136 | 4.3 | 8.7 | 0.00 | 0.16 | 0.07 | 64 | 1008.7 |
| 20260903203834 | 62 | 221 | 5.2 | 11.3 | 0.00 | 0.17 | 0.07 | 64 | 1008.7 |
| 20260903203335 | 62 | 235 | 5.2 | 11.3 | 0.00 | 0.17 | 0.07 | 63 | 1008.7 |
| 20260903202830 | 63 | 191 | 5.2 | 13.0 | 0.00 | 0.18 | 0.07 | 62 | 1008.7 |
| 20260903202329 | 62 | 192 | 6.1 | 13.0 | 0.00 | 0.18 | 0.07 | 64 | 1008.7 |
| 20260903201916 | 62 | 184 | 5.2 | 12.2 | 0.00 | 0.19 | 0.07 | 64 | 1008.7 |
| 20260903200829 | 62 | 220 | 6.1 | 12.2 | 0.00 | 0.19 | 0.07 | 64 | 1008.7 |
| 20260903200331 | 62 | 174 | 6.1 | 13.0 | 0.00 | 0.20 | 0.07 | 65 | 1008.7 |
| 20260903195835 | 62 | 156 | 5.2 | 13.0 | 0.00 | 0.20 | 0.07 | 65 | 1008.7 |
| 20260903195326 | 62 | 196 | 6.1 | 11.3 | 0.00 | 0.20 | 0.07 | 67 | 1008.7 |
| 20260903194811 | 61 | 173 | 6.1 | 13.0 | 0.00 | 0.21 | 0.07 | 68 | 1008.7 |
| 20260903194650 | 61 | 168 | 5.2 | 13.0 | 0.00 | 0.21 | 0.07 | 68 | 1008.7 |
| 20260903193543 | 61 | 171 | 6.1 | 12.2 | 0.00 | 0.21 | 0.07 | 69 | 1008.7 |
| 20260903192748 | 61 | 192 | 6.1 | 13.0 | 0.00 | 0.21 | 0.07 | 71 | 1008.7 |
| 20260903192243 | 60 | 196 | 6.1 | 13.0 | 0.00 | 0.21 | 0.07 | 70 | 1008.7 |
| 20260903191739 | 60 | 208 | 6.1 | 11.3 | 0.00 | 0.21 | 0.07 | 72 | 1008.7 |
| 20260903191240 | 60 | 194 | 7.0 | 13.0 | 0.00 | 0.21 | 0.07 | 71 | 1008.7 |
| 20260903191036 | 60 | 155 | 7.0 | 13.0 | 0.00 | 0.21 | 0.07 | 70 | 1008.7 |
| 20260903190240 | 60 | 180 | 6.1 | 13.9 | 0.00 | 0.21 | 0.07 | 71 | 1008.7 |
| 20260903185738 | 60 | 183 | 7.8 | 13.9 | 0.00 | 0.21 | 0.07 | 72 | 1008.7 |
| 20260903185238 | 60 | 203 | 8.7 | 15.6 | 0.00 | 0.21 | 0.07 | 72 | 1008.7 |
| 20260903184740 | 60 | 221 | 7.0 | 15.6 | 0.00 | 0.21 | 0.07 | 71 | 1008.7 |
| 20260903184234 | 60 | 207 | 8.7 | 18.2 | 0.00 | 0.21 | 0.07 | 73 | 1008.7 |
| 20260903183737 | 59 | 181 | 10.4 | 21.7 | 0.00 | 0.21 | 0.07 | 73 | 1008.6 |
| 20260903183534 | 60 | 191 | 8.7 | 21.7 | 0.00 | 0.21 | 0.07 | 74 | 1008.6 |
| 20260903182731 | 60 | 216 | 7.8 | 16.5 | 0.00 | 0.21 | 0.07 | 73 | 1008.6 |
| 20260903182233 | 60 | 194 | 8.7 | 18.2 | 0.00 | 0.21 | 0.07 | 74 | 1008.6 |
| 20260903181732 | 60 | 190 | 7.8 | 18.2 | 0.00 | 0.21 | 0.07 | 74 | 1008.6 |
| 20260903181222 | 59 | 184 | 8.7 | 16.5 | 0.00 | 0.21 | 0.07 | 75 | 1008.6 |
| 20260903180725 | 59 | 197 | 8.7 | 16.5 | 0.00 | 0.21 | 0.07 | 75 | 1008.4 |
| 20260903180218 | 59 | 223 | 7.8 | 16.5 | 0.00 | 0.21 | 0.07 | 76 | 1008.4 |
| 20260903175712 | 59 | 201 | 7.0 | 11.3 | 0.00 | 0.21 | 0.07 | 77 | 1008.4 |
| 20260903175514 | 59 | 186 | 6.1 | 12.2 | 0.00 | 0.21 | 0.07 | 76 | 1008.2 |
| 20260903174713 | 59 | 182 | 7.8 | 18.2 | 0.00 | 0.21 | 0.07 | 77 | 1008.2 |
| 20260903174503 | 59 | 192 | 9.6 | 18.2 | 0.00 | 0.21 | 0.07 | 76 | 1008.2 |
| 20260903173713 | 59 | 225 | 7.0 | 17.4 | 0.00 | 0.21 | 0.07 | 76 | 1008.2 |
| 20260903173504 | 59 | 175 | 5.2 | 11.3 | 0.00 | 0.21 | 0.07 | 78 | 1008.2 |
| 20260903172705 | 58 | 165 | 7.0 | 13.0 | 0.00 | 0.21 | 0.07 | 79 | 1008.2 |